TERRA

Last updated on Sun Sep 20 2026 00:02:08 GMT+0000 (Coordinated Universal Time)

1 25994U 99068A 26262.45195757 .00000192 00000+0 47955-4 0 9997 2 25994 97.9362 308.2180 0001054 319.6767 97.6592 14.61162301423370
UTC large
Height (km)
Speed (km/s)
/
Latitude / Longitude
Inclination (degrees)
Orbital Period (minutes)
Azimuth
Elevation
Range (km)
Doppler Factor

Next 0 passes for location: London (51.5072 / 0.1276)

No passes found over London.
TERRA